Volver al catálogo

IRIDIUM 33 DEB

ActivoPO
NORAD 36011·DEBRIS·🇺🇸 United States

Lanzado Sep 14, 1997 desde Baikonur Cosmodrome

Loading…

Próximos Pases (próximas 24 horas)

TLE

EnvejeciendoSource: Space-Track

Época: Sep 6, 2026, 08:17 UTC

1 36011U 97051US  26249.34559235  .00000627  00000-0  18447-3 0  9994
2 36011  86.3360 280.4244 0020482  63.1249 357.1923 14.42064579683968

Sigue IRIDIUM 33 DEB en tiempo real con AllMySat

Download on the App Store